Location: Cronhütte
(48.9135°N, 9.6869°E)
Time: 10:04:36
(UTC+00:00)

NOAA 16 DEB - Visible Passes

Search period start: 06 October 2024 00:00
Search period end: 16 October 2024 00:00
Orbit: 732 x 795 km, 98.9° (Epoch: 05 October)

Date Brightness Start Highest point End Pass type
(mag) Time Alt. Az. Time Alt. Az. Time Alt. Az.
06 Oct ? 00:26:09 12° NE 00:26:09 12° NE 00:27:40 10° NNE visible
06 Oct ? 02:06:20 28° N 02:06:20 28° N 02:08:46 10° N visible
06 Oct ? 03:46:31 11° NW 03:46:31 11° NW 03:46:48 10° NW visible
06 Oct ? 17:22:30 10° NNW 17:25:20 15° NW 17:28:10 10° W visible
07 Oct ? 01:28:52 23° NNE 01:28:52 23° NNE 01:31:11 10° N visible
07 Oct ? 03:09:03 17° NW 03:09:03 17° NW 03:10:18 10° NNW visible
08 Oct ? 00:51:19 16° NNE 00:51:19 16° NNE 00:53:03 10° NNE visible
08 Oct ? 02:31:30 21° NNW 02:31:30 21° NNW 02:33:09 10° NNW visible
08 Oct ? 17:48:34 10° NW 17:49:10 10° NW 17:49:46 10° NW visible
09 Oct ? 01:53:49 21° N 01:53:49 21° N 01:55:34 10° N visible
09 Oct ? 03:34:00 10° NW 03:34:00 10° NW 03:34:03 10° NW visible
09 Oct ? 17:08:47 10° NNW 17:12:14 19° WNW 17:15:40 10° WSW visible
10 Oct ? 01:16:05 17° NNE 01:16:05 17° NNE 01:17:34 10° N visible
10 Oct ? 02:56:14 14° NNW 02:56:14 14° NNW 02:57:00 10° NNW visible
11 Oct ? 00:38:15 11° NNE 00:38:15 11° NNE 00:38:50 10° NNE visible
11 Oct ? 02:18:24 16° NNW 02:18:24 16° NNW 02:19:26 10° NNW visible
11 Oct ? 17:33:18 10° NNW 17:35:32 13° NW 17:37:47 10° W visible
12 Oct ? 01:40:27 15° N 01:40:27 15° N 01:41:27 10° N visible
13 Oct ? 01:02:26 12° NNE 01:02:26 12° NNE 01:02:59 10° NNE visible
13 Oct ? 02:42:34 11° NNW 02:42:34 11° NNW 02:42:48 10° NNW visible
14 Oct ? 02:04:26 12° N 02:04:26 12° N 02:04:49 10° N visible
14 Oct ? 17:17:57 10° NNW 17:21:03 17° NW 17:24:08 10° W visible
15 Oct ? 01:26:13 11° N 01:26:13 11° N 01:26:25 10° N visible
